Location: Zagreb
(45.8000°N, 16.0000°E)
Time: 18:39:07
(UTC+02:00)

A-11 Canister half - Pass Details

Date: 11 August 2022
Orbit: 1524 x 1684 km, 47.3° (Epoch: 05 October)

Event Time Altitude Azimuth Distance (km) Brightness Sun altitude
Rises 06:33:39 0° 229° (SW) 4,903 11.1 6.2°
Reaches altitude 10° 06:36:49 10° 227° (SW) 3,928 10.6 6.7°
Maximum altitude 06:46:45 64° 149° (SSE) 1,838 9.7 8.4°
Drops below altitude 10° 06:56:42 10° 71° (ENE) 3,932 14.0 10.1°
Sets 06:59:52 0° 69° (ENE) 4,908 13.6 10.6°
